{"data":{"norad_id":57182,"epoch":"2026-05-25T04:28:44.488128Z","epoch_age_seconds":69180,"freshness":"FRESH","line1":"1 57182U 23091S   26145.18662602  .00010839  00000+0  40588-3 0  9995","line2":"2 57182  97.5090 208.4413 0012186 173.7922 186.3470 15.27399469160782","mean_motion":15.27399469,"eccentricity":0.0012186,"inclination_deg":97.509,"raan_deg":208.4413,"arg_perigee_deg":173.7922,"mean_anomaly_deg":186.347,"bstar":0.00040588,"rev_number":16078,"period_min":94.277890573235,"perigee_km":475.22802385709,"apogee_km":491.95142422893,"semimajor_km":6861.726724043,"source":"CELESTRAK","updated_at":"2026-05-25T13:38:23.291660Z"}}